User: anonymous   Login
Location: Innerarity Island Observatory
(30.3139°N, 87.4867°W)
Time: 05:19:35
(UTC-05:00)
Language:

JAS-2 - Orbit

View from above orbital plane
View from above orbital plane
View from above satellite
View from above satellite

Ground track
Ground track

The orbit data is extracted from the following two-line orbital elements,

1 24278U 96046B   15142.50267361  .00000014  00000-0  47940-4 0  9994
2 24278 098.5382 114.7736 0351106 137.2788 335.2192 13.53051613926551
Epoch (UTC): 22 May 2015 12:03:51
Eccentricity: 0.0351106
inclination: 98.5382°
perigee height: 800 km
apogee height: 1322 km
right ascension of ascending node: 114.7736°
argument of perigee: 137.2788°
revolutions per day: 13.53051613
mean anomaly at epoch: 335.2192°
orbit number at epoch: 92655

The dashed part of the orbit path shows where the satellite is in the earth's shadow,  

DLR